Location: Elstree
(51.6403°N, 0.2969°W)
Time: 14:38:17
(UTC+00:00)

Cosmos 1354 Rocket - Pass Details

Date: 18 June 2021
Orbit: 764 x 783 km, 74.0° (Epoch: 25 July)

Event Time Altitude Azimuth Distance (km) Brightness Sun altitude
Rises 22:53:09 0° 334° (NNW) 3,284 9.1 -13.4°
Reaches altitude 10° 22:55:33 10° 334° (NNW) 2,352 7.9 -13.5°
Maximum altitude 23:00:55 83° 247° (WSW) 797 4.0 -13.7°
Enters shadow 23:04:36 21° 162° (SSE) 1,721 5.2 -13.9°
